• en Belgique
  • Liste des pays
  • À 7 jours
  • Température de l'eau
  • Carte satellitaire
  • Carte météo
  • Widgets météo
  • user-avatar
    Se connecter

    Météo par heure à Benguela

    Ce jour, 25 Février, Dimanche

    Heure Température Précipitation Vent Pression Humidité
    00:00 +29°C° 0 mm 2 m/s 757 mmHg 85%
    01:00 +28°C° 0 mm 2 m/s 757 mmHg 85%
    02:00 +28°C° 0 mm 2 m/s 757 mmHg 86%
    03:00 +28°C° 0 mm 2 m/s 757 mmHg 87%
    04:00 +28°C° 0 mm 2 m/s 757 mmHg 88%
    05:00 +28°C° 0 mm 2 m/s 758 mmHg 88%
    06:00 +28°C° 0 mm 1 m/s 758 mmHg 87%
    07:00 +28°C° 0 mm 1 m/s 758 mmHg 87%
    08:00 +28°C° 0,1 mm 1 m/s 759 mmHg 85%
    09:00 +29°C° 0,1 mm 1 m/s 759 mmHg 83%
    10:00 +29°C° 0,1 mm 1 m/s 759 mmHg 82%
    11:00 +30°C° 0,1 mm 2 m/s 759 mmHg 79%
    12:00 +30°C° 0,1 mm 2 m/s 758 mmHg 77%
    13:00 +31°C° 0,1 mm 3 m/s 758 mmHg 74%
    14:00 +31°C° 0,2 mm 3 m/s 758 mmHg 74%
    15:00 +31°C° 0,2 mm 3 m/s 757 mmHg 73%
    16:00 +31°C° 0,2 mm 3 m/s 757 mmHg 73%
    17:00 +30°C° 0,1 mm 3 m/s 757 mmHg 77%
    18:00 +29°C° 0,1 mm 3 m/s 757 mmHg 81%
    19:00 +28°C° 0,1 mm 3 m/s 758 mmHg 85%
    20:00 +28°C° 0 mm 3 m/s 758 mmHg 85%
    21:00 +28°C° 0 mm 3 m/s 758 mmHg 86%
    22:00 +27°C° 0 mm 2 m/s 759 mmHg 87%
    23:00 +27°C° 0 mm 2 m/s 759 mmHg 87%

    Demain, 26 Février, Lundi

    Heure Température Précipitation Vent Pression Humidité
    00:00 +27°C° 0 mm 2 m/s 758 mmHg 88%
    01:00 +27°C° 0 mm 2 m/s 758 mmHg 88%
    02:00 +27°C° 0 mm 2 m/s 758 mmHg 87%
    03:00 +27°C° 0 mm 2 m/s 758 mmHg 85%
    04:00 +27°C° 0 mm 1 m/s 757 mmHg 84%
    05:00 +27°C° 0 mm 1 m/s 758 mmHg 85%
    06:00 +27°C° 0 mm 1 m/s 758 mmHg 85%
    07:00 +27°C° 0 mm 1 m/s 758 mmHg 86%
    08:00 +28°C° 0 mm 1 m/s 759 mmHg 82%
    09:00 +29°C° 0 mm 1 m/s 759 mmHg 78%
    10:00 +30°C° 0 mm 1 m/s 759 mmHg 74%
    11:00 +30°C° 0 mm 2 m/s 759 mmHg 71%
    12:00 +31°C° 0 mm 3 m/s 758 mmHg 69%
    13:00 +33°C° 0 mm 3 m/s 758 mmHg 66%
    14:00 +33°C° 0 mm 4 m/s 757 mmHg 65%
    15:00 +33°C° 0 mm 4 m/s 756 mmHg 64%
    16:00 +34°C° 0 mm 4 m/s 756 mmHg 63%
    17:00 +32°C° 0 mm 4 m/s 756 mmHg 70%
    18:00 +30°C° 0 mm 4 m/s 757 mmHg 77%
    19:00 +28°C° 0 mm 4 m/s 757 mmHg 85%
    20:00 +28°C° 0 mm 3 m/s 758 mmHg 87%
    21:00 +27°C° 0 mm 3 m/s 759 mmHg 89%
    22:00 +27°C° 0 mm 3 m/s 760 mmHg 92%
    23:00 +27°C° 0 mm 2 m/s 759 mmHg 91%

    Après-demain, 27 Février, Mardi

    Heure Température Précipitation Vent Pression Humidité
    00:00 +27°C° 0 mm 2 m/s 759 mmHg 90%
    01:00 +27°C° 0 mm 2 m/s 759 mmHg 89%
    02:00 +27°C° 0 mm 2 m/s 758 mmHg 88%
    03:00 +26°C° 0 mm 2 m/s 758 mmHg 88%
    04:00 +26°C° 0 mm 1 m/s 757 mmHg 88%
    05:00 +26°C° 0 mm 1 m/s 758 mmHg 88%
    06:00 +26°C° 0 mm 1 m/s 758 mmHg 88%
    07:00 +26°C° 0 mm 1 m/s 759 mmHg 88%
    08:00 +28°C° 0 mm 2 m/s 759 mmHg 79%
    09:00 +30°C° 0 mm 2 m/s 759 mmHg 71%
    10:00 +32°C° 0 mm 2 m/s 759 mmHg 62%
    11:00 +34°C° 0 mm 3 m/s 758 mmHg 59%
    12:00 +35°C° 0 mm 3 m/s 758 mmHg 55%
    13:00 +36°C° 0 mm 4 m/s 757 mmHg 52%
    14:00 +35°C° 0 mm 4 m/s 757 mmHg 56%
    15:00 +34°C° 0 mm 4 m/s 756 mmHg 60%
    16:00 +33°C° 0 mm 4 m/s 756 mmHg 64%
    17:00 +32°C° 0 mm 4 m/s 756 mmHg 69%
    18:00 +29°C° 0 mm 3 m/s 757 mmHg 74%
    19:00 +28°C° 0 mm 3 m/s 758 mmHg 80%
    20:00 +28°C° 0 mm 2 m/s 758 mmHg 82%
    21:00 +27°C° 0 mm 2 m/s 759 mmHg 84%
    22:00 +27°C° 0 mm 1 m/s 760 mmHg 86%
    23:00 +27°C° 0 mm 1 m/s 760 mmHg 86%

    28 Février, Mercredi

    Heure Température Précipitation Vent Pression Humidité
    00:00 +27°C° 0 mm 1 m/s 759 mmHg 86%
    01:00 +27°C° 0 mm 1 m/s 759 mmHg 86%
    02:00 +27°C° 0 mm 1 m/s 759 mmHg 85%
    03:00 +27°C° 0 mm 1 m/s 759 mmHg 85%
    04:00 +26°C° 0 mm 1 m/s 758 mmHg 85%
    05:00 +26°C° 0 mm 1 m/s 759 mmHg 85%
    06:00 +26°C° 0 mm 1 m/s 759 mmHg 84%
    07:00 +26°C° 0 mm 1 m/s 759 mmHg 84%
    08:00 +28°C° 0 mm 1 m/s 759 mmHg 76%
    09:00 +30°C° 0 mm 1 m/s 760 mmHg 67%
    10:00 +32°C° 0 mm 2 m/s 760 mmHg 59%
    11:00 +34°C° 0 mm 2 m/s 759 mmHg 56%
    12:00 +34°C° 0 mm 3 m/s 759 mmHg 53%
    13:00 +35°C° 0 mm 3 m/s 758 mmHg 51%
    14:00 +35°C° 0 mm 4 m/s 757 mmHg 54%
    15:00 +34°C° 0 mm 4 m/s 757 mmHg 58%
    16:00 +34°C° 0 mm 4 m/s 757 mmHg 62%
    17:00 +32°C° 0 mm 4 m/s 757 mmHg 68%
    18:00 +30°C° 0 mm 3 m/s 758 mmHg 74%
    19:00 +28°C° 0 mm 3 m/s 758 mmHg 80%
    20:00 +28°C° 0 mm 3 m/s 759 mmHg 82%
    21:00 +27°C° 0 mm 2 m/s 759 mmHg 84%
    22:00 +27°C° 0 mm 2 m/s 760 mmHg 86%
    23:00 +27°C° 0 mm 2 m/s 759 mmHg 87%

    1 Mars, Jeudi

    Heure Température Précipitation Vent Pression Humidité
    00:00 +27°C° 0 mm 2 m/s 759 mmHg 88%
    01:00 +26°C° 0 mm 2 m/s 759 mmHg 88%
    02:00 +26°C° 0 mm 2 m/s 758 mmHg 89%
    03:00 +26°C° 0 mm 2 m/s 758 mmHg 89%
    04:00 +26°C° 0 mm 2 m/s 758 mmHg 90%
    05:00 +26°C° 0 mm 1 m/s 758 mmHg 89%
    06:00 +26°C° 0 mm 1 m/s 758 mmHg 88%
    07:00 +27°C° 0 mm 1 m/s 759 mmHg 87%
    08:00 +29°C° 0 mm 1 m/s 759 mmHg 77%
    09:00 +31°C° 0 mm 1 m/s 759 mmHg 68%
    10:00 +33°C° 0 mm 1 m/s 759 mmHg 58%
    11:00 +35°C° 0 mm 2 m/s 758 mmHg 56%
    12:00 +35°C° 0 mm 3 m/s 758 mmHg 53%
    13:00 +36°C° 0 mm 4 m/s 757 mmHg 51%
    14:00 +35°C° 0,1 mm 4 m/s 757 mmHg 56%
    15:00 +34°C° 0,1 mm 4 m/s 756 mmHg 60%
    16:00 +34°C° 0,1 mm 5 m/s 756 mmHg 65%
    17:00 +32°C° 0,1 mm 4 m/s 756 mmHg 71%
    18:00 +30°C° 0,1 mm 3 m/s 756 mmHg 76%
    19:00 +28°C° 0,1 mm 3 m/s 757 mmHg 82%
    20:00 +28°C° 0 mm 2 m/s 757 mmHg 84%
    21:00 +27°C° 0 mm 2 m/s 758 mmHg 85%
    22:00 +27°C° 0 mm 2 m/s 758 mmHg 87%
    23:00 +27°C° 0 mm 1 m/s 758 mmHg 88%

    2 Mars, Vendredi

    Heure Température Précipitation Vent Pression Humidité
    00:00 +27°C° 0 mm 1 m/s 758 mmHg 88%
    01:00 +27°C° 0 mm 1 m/s 758 mmHg 88%
    02:00 +27°C° 0 mm 1 m/s 758 mmHg 87%
    03:00 +26°C° 0 mm 1 m/s 757 mmHg 87%
    04:00 +26°C° 0 mm 1 m/s 757 mmHg 86%
    05:00 +26°C° 0 mm 1 m/s 757 mmHg 86%
    06:00 +26°C° 0 mm 1 m/s 758 mmHg 85%
    07:00 +26°C° 0 mm 1 m/s 758 mmHg 85%
    08:00 +28°C° 0 mm 2 m/s 758 mmHg 77%
    09:00 +30°C° 0 mm 2 m/s 758 mmHg 69%
    10:00 +31°C° 0 mm 2 m/s 758 mmHg 62%
    11:00 +33°C° 0 mm 3 m/s 758 mmHg 59%
    12:00 +34°C° 0 mm 4 m/s 757 mmHg 56%
    13:00 +35°C° 0 mm 5 m/s 756 mmHg 52%
    14:00 +34°C° 0 mm 5 m/s 756 mmHg 57%
    15:00 +33°C° 0 mm 5 m/s 756 mmHg 61%
    16:00 +33°C° 0 mm 5 m/s 755 mmHg 66%
    17:00 +30°C° 0 mm 4 m/s 756 mmHg 70%
    18:00 +29°C° 0 mm 4 m/s 756 mmHg 75%
    19:00 +28°C° 0 mm 3 m/s 757 mmHg 80%
    20:00 +27°C° 0 mm 3 m/s 757 mmHg 82%
    21:00 +27°C° 0 mm 3 m/s 758 mmHg 83%
    22:00 +26°C° 0 mm 3 m/s 758 mmHg 85%
    23:00 +26°C° 0 mm 3 m/s 758 mmHg 86%
    Voir plus